Yuma, AZ (85364)

5:03 PM MST on August 27, 2016 (GMT -0700)
APRSWXNET | | Change Station

Elev 125 ft 32.72 °N, 114.65 °W | Updated 33 minutes ago

Mostly Cloudy
Mostly Cloudy
99 °F
Feels Like 99 °F
N
2
Wind Variable Wind from SE
Gusts 3.0 mph

Today
High -- | Low -- °F
--% Chance of Precip.
Yesterday
High -- | Low -- °F
Precip. -- in
Pressure 29.76 in
Visibility 10.0 miles
Clouds Mostly Cloudy 10000 ft
Heat Index 99 °F
Dew Point 59 °F
Humidity 27%
Rainfall in
Snow Depth Not available.
6:10 AM 7:08 PM
Waning Crescent, 20% visible
METAR KNYL 272357Z AUTO 19005KT 10SM BKN100 38/08 A2977 RMK AO2 SLP076 T03780083 10383 20333 56017
Pressure 29.76 in
Visibility 10.0 miles
Clouds Mostly Cloudy 10000 ft
Heat Index 99 °F
Dew Point 59 °F
Humidity 27%
Rainfall in
Snow Depth Not available.
6:10 AM 7:08 PM
Waning Crescent, 20% visible
METAR KNYL 272357Z AUTO 19005KT 10SM BKN100 38/08 A2977 RMK AO2 SLP076 T03780083 10383 20333 56017

10-Day Weather Forecast

Almanac

Astronomy

Aug. 27, 2016 Rise Set
Actual Time
Civil Twilight
Nautical Twilight
Astronomical Twilight
Moon
Length of Visible Light
Length of Day
Tomorrow will be .
, % of the Moon is Illuminated

Today's Extremes

State Highs State Lows

Community

WunderPhotos

Upload Photos

1,935,468 photos uploaded!

WunderBlog® & News

Nearby

Air Quality

  Air Quality AQ Index Pollutant
Not available.

Snow Depth

Station Depth Elevation

Earthquake Activity

City Distance Mag. Time & Date
Minimum magnitude displayed is 2.5.

Coastal Water Temperatures

Place Temperature

Stations

Nearby Weather Stations

Station Location Temp. Windchill Dew Point Humidity Wind Precip. Elev Updated Type
                   

Watches & Warnings

There are currently no watches in effect.